Voltar ao catálogo

STARLINK-36635

AtivoComunicaçõesSSO
NORAD 67601·PAYLOAD·🇺🇸 United States

Lançado Jan 29, 2026 de Vandenberg Space Force Base

Loading…

Próximas Passagens (próximas 24 horas)

TLE

AtualizadoSource: CelesTrak SupGP

Época: Sep 15, 2026, 03:48 UTC

1 67601C 26018N   26258.15881944  .00002736  00000+0  84938-4 0  2581
2 67601  97.2850 321.7323 0000873  78.1021 304.2536 15.33438797    15

Acompanhe STARLINK-36635 em tempo real com AllMySat

Download on the App Store